Wind_Speed
23 22 22 23 23 23 23 23 23 22 22 22 22 23 24 25 25 26 27 28 29 29 29 28 28 27 27 26 26 25 26 27 26 28 22 13 16 22 23 23 23 22 21 20 19 17 15 14 15 18 19 18 18 18 18 18 19 21 22 20 19 18 15 12 8 9 11 11 10 10 9 6 6 9 8 7 6 5 3 4 6 6 6 5 5 4 4 1
23 23 23 23 23 23 23 23 23 23 23 23 23 23 23 24 24 25 25 26 28 28 28 28 28 28 28 28 27 27 27 27 29 27 16 12 19 22 23 26 26 24 23 21 21 20 18 16 15 16 19 19 19 19 19 19 20 21 23 22 19 16 14 11 8 10 11 11 11 10 9 5 6 8 9 7 4 4 3 3 6 5 5 4 4 3 2 1
24 24 23 23 23 24 24 24 23 23 23 23 23 23 23 23 24 24 24 25 26 26 27 27 27 28 28 27 27 27 27 28 29 23 14 18 21 19 22 25 26 25 24 23 23 23 22 20 17 16 18 20 21 20 20 20 21 22 23 22 18 15 13 10 9 9 9 11 12 10 9 5 5 7 8 7 3 2 3 3 4 5 6 4 3 2 0 1
25 25 24 24 24 24 24 24 24 24 24 23 23 23 23 23 23 24 24 25 25 25 24 25 26 27 27 27 27 27 27 28 27 20 17 21 20 19 22 23 24 23 24 25 25 25 24 23 19 17 18 21 22 22 22 21 21 23 24 22 17 16 14 11 9 8 7 10 11 9 8 4 6 8 7 7 4 1 2 2 4 6 6 3 2 0 2 3
26 25 25 25 24 24 25 25 25 25 24 24 23 23 23 23 23 23 24 24 24 24 23 24 25 26 26 26 26 26 26 25 23 19 20 22 20 20 21 22 22 21 23 25 25 25 25 25 22 20 19 21 23 23 22 21 22 24 24 22 18 17 15 12 9 8 7 9 9 7 4 1 5 7 5 6 4 1 1 1 3 4 4 2 0 2 4 4
26 26 26 26 25 25 25 25 25 25 25 24 24 24 23 23 23 23 24 23 23 23 23 23 24 25 25 25 25 25 25 20 15 15 18 21 21 20 21 23 22 21 22 23 24 25 26 26 25 22 20 21 23 23 21 20 23 24 23 22 20 18 15 12 9 8 7 9 8 6 2 3 4 6 6 6 4 5 4 2 3 3 4 3 2 3 4 4
26 26 26 26 26 26 26 26 26 26 25 25 25 24 24 24 24 24 23 23 22 22 22 22 23 24 24 25 24 25 27 20 14 15 15 16 18 20 22 23 22 21 21 22 24 25 25 27 26 22 20 21 23 22 21 21 23 25 24 22 20 19 16 11 9 8 9 10 7 5 4 1 5 7 7 7 7 7 7 7 6 5 5 3 2 2 4 5
26 26 26 26 27 27 26 26 26 26 26 26 25 25 25 25 25 24 24 23 22 22 22 22 23 23 23 25 24 26 25 16 12 19 19 15 15 18 22 23 23 22 21 22 22 24 25 26 25 22 20 20 22 22 21 21 23 25 24 21 20 19 17 12 10 11 11 10 7 6 6 3 5 7 7 9 10 10 8 6 6 7 6 3 0 3 5 3
25 26 26 27 27 27 27 26 26 26 26 26 25 26 26 26 25 24 24 23 22 22 22 23 23 23 24 24 25 26 21 13 15 21 22 19 16 16 20 22 22 22 22 22 23 25 25 25 23 21 19 19 21 22 22 22 23 24 22 20 19 18 17 16 14 12 11 9 7 7 7 5 4 7 9 11 12 13 10 5 7 10 8 3 2 4 7 5
25 25 26 26 27 27 27 27 26 26 26 26 26 26 26 26 26 25 24 24 23 22 22 23 23 24 24 24 26 24 17 16 19 20 20 20 18 16 18 21 22 22 23 23 23 24 23 22 22 21 19 19 21 22 22 23 22 22 21 20 19 19 19 18 16 14 11 9 7 6 7 5 5 8 10 11 12 13 9 8 11 12 8 4 4 6 9 11
25 25 26 26 26 27 27 27 27 26 26 25 26 26 26 26 26 25 25 24 24 23 23 23 23 24 24 25 26 21 15 17 19 20 21 19 18 17 17 20 22 22 24 23 22 22 21 21 22 21 20 20 21 21 22 23 22 20 19 20 20 20 19 18 17 16 13 10 6 5 8 8 8 10 10 10 11 10 9 12 12 11 7 5 5 5 8 11
25 25 25 25 26 26 27 27 27 26 25 25 26 26 26 26 26 26 25 25 24 23 24 24 25 24 24 27 23 15 16 19 18 20 21 19 19 18 19 21 23 24 25 24 23 22 22 23 23 22 19 19 20 19 19 23 23 20 17 17 18 19 18 16 15 15 13 11 7 6 9 11 12 12 11 11 11 8 11 13 11 10 8 6 6 5 7 10
24 24 24 25 25 26 26 27 26 26 25 25 25 26 26 26 27 26 25 25 24 24 25 25 25 24 26 27 18 13 18 20 19 20 20 20 21 21 21 22 23 25 26 25 25 25 24 25 24 23 21 19 19 18 16 21 23 20 18 16 16 17 17 14 13 13 13 12 9 8 11 11 10 11 12 12 11 8 10 11 10 10 8 7 6 6 6 8
23 24 24 24 25 25 26 26 26 25 25 25 25 25 26 27 27 26 26 26 25 25 25 25 25 25 27 23 16 17 20 20 20 20 20 22 23 22 21 20 21 22 25 26 27 28 27 26 24 24 24 20 19 19 16 17 19 19 17 16 16 14 13 12 11 10 10 11 10 9 11 11 9 10 10 10 9 8 8 9 9 9 8 7 7 6 5 6
23 23 23 23 24 24 25 25 25 25 25 25 25 25 26 27 27 27 27 26 26 26 26 26 25 25 26 21 17 20 21 20 18 18 22 24 24 23 19 18 20 21 23 26 28 29 29 28 27 25 25 22 20 21 18 15 15 17 16 14 16 14 9 8 9 9 9 10 10 10 11 10 9 8 6 6 6 7 8 9 9 9 7 6 6 6 4 4
22 22 22 23 23 24 24 24 25 25 25 25 25 25 26 27 27 27 27 27 27 27 26 26 25 25 25 19 19 20 19 19 17 18 22 22 22 24 21 19 20 21 23 26 29 30 29 29 28 26 25 24 23 21 19 16 14 16 18 14 13 14 10 7 8 10 11 11 11 13 12 9 5 3 6 6 6 8 9 10 9 8 7 5 6 5 4 4
21 21 21 22 22 23 23 24 24 24 25 25 24 25 26 27 27 27 28 27 27 27 27 26 24 25 23 18 17 18 18 19 19 21 21 19 20 23 24 22 21 22 23 27 29 29 29 30 29 27 26 26 23 21 20 19 16 15 19 18 10 10 11 9 9 11 13 13 13 14 15 14 8 4 5 3 4 7 9 10 9 8 7 5 6 4 4 4
21 20 20 21 22 22 22 23 23 24 24 24 23 24 25 26 26 27 28 27 27 27 27 26 25 24 20 17 16 15 19 22 22 21 20 19 20 21 23 24 22 23 25 27 29 28 28 30 31 28 27 27 25 24 22 20 19 15 18 20 13 9 11 11 11 10 10 12 12 11 12 14 12 8 6 1 1 5 7 9 10 9 8 6 6 4 4 4
20 19 19 20 21 21 22 22 22 23 22 22 22 23 24 25 26 26 27 28 28 27 25 23 25 24 18 15 16 16 20 24 22 20 20 20 21 21 23 25 25 26 27 28 28 27 28 31 32 30 29 29 26 25 22 19 18 15 14 16 14 12 11 10 10 9 8 9 10 12 13 12 13 13 10 5 3 6 7 9 12 12 10 8 7 5 5 4
19 18 19 19 20 21 21 21 21 21 20 20 20 21 22 23 24 24 26 28 27 26 25 22 21 22 19 14 14 17 21 23 22 20 22 21 21 22 24 26 28 28 28 28 27 27 30 33 34 34 30 27 25 23 22 19 17 14 12 12 13 15 13 10 8 6 7 10 10 13 14 13 13 14 11 8 6 6 5 7 12 13 11 11 9 7 7 5
18 17 17 18 19 20 20 20 19 19 19 18 18 19 20 21 22 23 25 27 26 26 27 25 22 22 22 18 15 19 22 23 23 22 24 24 22 22 24 27 29 30 27 25 26 27 31 34 32 31 27 23 24 24 23 22 18 14 12 11 10 13 14 11 6 4 6 10 11 14 14 14 15 14 11 9 8 6 3 2 6 11 12 11 9 7 7 6
17 16 16 17 18 18 18 18 18 18 17 16 16 17 18 20 21 22 24 26 25 26 26 26 26 22 22 21 18 21 24 23 23 24 26 26 25 24 24 28 30 30 27 25 28 29 30 33 30 26 25 24 25 26 25 24 21 18 14 11 10 10 11 9 7 5 6 8 9 13 16 15 15 14 12 10 7 3 1 2 3 6 9 7 6 7 8 8
17 16 15 15 16 16 16 16 17 17 15 13 14 15 17 19 21 22 23 24 23 23 25 26 26 23 22 22 21 23 24 23 24 26 27 27 27 26 25 28 29 29 29 29 31 31 27 27 26 25 26 27 26 27 26 23 22 21 18 15 12 9 6 6 8 6 4 4 4 10 15 13 11 12 11 9 7 5 5 5 5 5 7 7 7 9 12 12
17 15 14 13 14 15 15 15 16 15 12 11 13 15 18 20 19 19 19 22 22 22 24 24 26 25 22 22 23 25 23 22 25 26 28 28 27 27 26 28 29 30 31 31 30 29 24 21 23 25 26 28 28 27 26 23 22 22 20 18 14 10 5 3 6 5 4 2 3 8 10 7 7 9 9 8 8 7 5 5 7 7 8 9 10 12 15 14
17 16 13 12 13 13 14 15 14 12 10 11 14 16 19 19 16 16 15 16 20 21 22 23 26 25 22 24 26 25 23 24 27 27 27 28 27 29 28 27 29 31 32 30 27 25 22 21 23 26 27 27 27 26 25 23 22 21 22 21 16 10 5 2 3 4 4 3 5 11 8 5 6 10 8 9 8 5 5 5 6 9 10 11 11 13 14 15
17 16 14 12 12 13 14 14 12 10 11 13 15 16 18 16 13 13 12 11 17 20 20 22 24 22 24 29 28 24 23 25 26 26 27 27 26 28 29 29 30 30 30 27 24 23 23 24 25 26 27 27 26 25 24 23 22 21 22 22 17 10 6 3 1 2 3 2 6 13 10 6 7 10 10 9 8 4 4 4 5 8 10 11 10 11 13 14
17 17 14 12 12 12 13 12 10 10 13 14 15 15 15 14 11 10 8 7 12 17 19 21 22 20 24 29 28 24 20 21 25 26 27 27 25 27 28 30 32 30 29 25 21 23 27 28 25 23 25 27 28 27 24 23 22 22 22 20 18 12 7 5 4 3 5 3 5 10 14 12 8 7 10 10 8 5 3 3 4 6 9 10 10 10 12 13
17 16 15 13 12 12 11 10 10 12 13 14 14 14 14 13 10 7 3 2 4 8 13 19 21 18 22 28 28 25 18 18 25 25 24 25 25 28 28 29 31 30 29 27 23 23 26 29 27 22 22 27 30 27 24 23 23 23 21 17 16 12 9 7 5 5 7 6 6 8 13 11 7 6 8 9 9 5 2 2 3 5 7 9 10 12 13 13
16 16 15 14 13 11 10 10 11 12 13 15 14 13 13 11 9 6 2 1 4 5 7 15 21 20 24 30 29 26 18 17 23 23 23 25 25 28 27 26 26 26 27 27 25 23 21 22 25 24 23 25 28 26 23 23 23 21 18 16 15 11 9 8 5 6 8 6 5 7 11 8 4 5 8 8 8 6 3 2 2 3 4 6 8 9 12 15
16 15 15 15 14 11 11 11 11 12 15 16 15 13 12 10 10 7 3 3 4 5 6 13 21 23 26 31 32 28 19 16 22 25 25 25 24 24 24 22 21 21 22 23 24 22 16 14 19 23 22 20 22 23 23 22 21 19 17 17 15 10 9 9 8 9 6 3 6 8 11 8 2 3 6 7 8 6 4 4 3 3 4 5 7 7 10 14
16 15 15 15 14 12 12 12 12 15 17 18 16 14 13 12 10 5 3 6 5 4 6 12 21 26 27 30 34 33 23 17 21 25 27 26 24 25 24 23 21 19 20 23 23 22 18 14 14 17 17 16 16 18 18 18 19 19 18 18 14 9 10 10 9 11 4 1 7 9 11 11 5 3 6 7 7 6 5 4 3 3 4 5 7 8 9 12
16 16 15 14 14 13 13 13 14 17 19 20 17 16 15 12 9 10 6 4 4 4 5 11 21 26 26 28 32 35 28 19 19 23 27 28 26 28 28 25 24 21 19 23 22 20 22 19 14 16 18 18 16 15 17 18 19 19 18 18 13 6 6 6 3 5 3 2 8 11 11 9 4 6 9 7 6 6 5 5 4 3 3 4 5 7 9 12
16 16 16 15 13 13 14 15 16 19 20 21 19 18 17 8 8 19 14 1 1 4 2 8 20 22 22 26 30 35 31 21 20 21 24 27 26 27 27 24 23 22 18 20 20 16 16 18 17 18 20 20 18 16 18 20 20 21 21 20 15 6 4 3 1 0 2 3 9 13 10 7 5 7 10 9 8 8 7 6 5 4 3 4 4 5 8 11
16 16 16 14 13 14 16 17 18 20 21 21 20 19 16 8 8 17 19 6 6 4 5 4 12 16 19 26 31 35 32 22 21 22 23 27 27 27 28 24 22 21 16 16 19 16 10 11 19 22 18 18 20 16 15 17 18 22 22 21 19 11 5 4 3 3 4 4 8 10 6 6 8 10 11 12 10 10 9 7 5 4 4 4 4 4 5 8
16 16 16 14 13 15 17 18 19 20 21 23 22 20 17 17 11 7 16 11 9 4 11 2 6 16 19 25 30 34 31 22 21 22 23 27 28 27 28 25 22 22 18 14 15 16 10 8 16 21 15 14 17 16 14 14 15 19 21 20 20 17 10 7 6 8 9 6 5 5 3 7 12 13 15 14 12 12 10 7 6 4 5 5 4 4 5 6
17 16 17 15 13 15 15 17 18 19 23 23 23 23 22 23 15 2 10 8 11 3 12 3 4 19 21 22 28 32 30 24 23 21 21 25 26 26 26 23 22 23 20 15 12 12 10 8 12 17 15 12 14 14 14 14 15 20 23 21 19 18 15 10 7 7 8 6 2 2 5 10 12 13 18 17 14 14 11 8 8 6 6 6 4 5 6 6
16 16 18 16 12 12 14 16 18 19 23 24 23 25 24 23 17 4 8 6 11 4 10 5 3 18 21 21 26 33 31 25 23 22 20 22 22 25 26 23 23 23 19 16 11 9 10 10 10 14 16 15 14 12 12 13 16 21 24 22 19 16 14 11 6 3 3 3 2 3 7 13 12 10 19 21 17 16 14 11 9 7 7 6 6 6 7 7
16 16 17 16 11 10 12 15 18 19 21 24 25 25 22 22 18 8 7 4 11 2 9 8 5 14 19 20 24 32 33 26 23 21 20 19 17 21 27 24 23 24 20 16 11 8 9 9 8 12 15 16 15 12 12 15 18 19 22 23 19 12 11 12 7 3 4 2 0 3 6 14 16 13 19 24 21 18 16 12 10 10 9 8 8 8 8 9
15 15 16 15 12 11 13 16 18 19 22 25 28 26 22 21 19 11 5 6 12 3 7 3 3 10 15 19 22 29 34 30 25 22 20 18 13 16 24 25 23 24 23 19 12 8 9 7 5 10 14 15 17 15 15 19 20 17 19 24 21 11 11 15 10 7 8 4 1 3 2 10 19 17 17 23 23 20 17 14 12 11 10 9 8 8 9 10
14 14 14 14 13 13 14 17 19 21 25 27 27 25 21 21 19 11 4 7 10 4 6 4 1 7 13 18 21 25 32 31 27 22 20 19 14 12 19 24 23 23 23 22 17 10 8 7 5 7 11 13 16 17 17 21 24 21 19 23 22 15 12 15 10 8 9 5 4 5 1 9 19 19 18 20 21 20 18 15 12 10 9 8 7 8 9 11
13 13 14 14 14 13 15 18 20 23 25 25 24 23 22 22 19 11 6 6 6 6 5 5 3 5 12 18 20 22 28 28 26 22 19 19 17 11 13 21 23 22 22 22 23 17 11 9 6 5 7 9 12 16 17 20 25 25 21 21 22 19 16 12 6 6 8 6 7 7 2 9 19 22 20 20 18 17 16 14 12 11 10 9 8 9 10 11
13 13 14 14 14 13 16 18 20 22 22 22 22 22 22 21 16 10 8 4 2 8 5 7 1 6 12 19 21 21 25 25 23 21 18 19 19 12 10 17 20 19 19 20 23 21 15 12 9 4 4 5 7 15 19 20 23 24 23 21 22 21 18 12 7 8 10 7 7 8 3 6 17 21 19 18 17 16 14 13 12 11 11 9 9 10 10 11
13 14 14 15 15 15 18 20 20 21 20 19 20 20 19 18 12 10 8 1 4 9 5 5 2 4 11 21 23 23 25 23 20 20 19 18 18 13 9 14 17 18 18 17 20 22 18 14 11 6 4 2 3 10 16 19 21 21 20 21 21 20 19 15 10 12 15 11 9 6 3 5 14 17 16 18 17 16 15 14 14 13 11 8 9 10 9 10
15 15 15 16 16 17 20 20 19 20 18 17 19 17 16 16 10 10 7 0 5 7 2 2 3 3 10 19 23 25 25 20 18 18 19 18 17 14 11 12 14 17 18 15 18 21 19 16 13 7 5 2 2 3 8 14 17 17 17 18 19 18 18 16 11 12 14 13 12 7 3 9 15 16 17 19 18 16 15 15 16 14 9 8 9 9 9 10
17 17 17 18 18 19 20 20 18 18 16 15 17 15 14 12 8 9 7 3 7 6 4 6 5 5 8 15 20 24 23 19 19 19 19 21 19 16 14 14 13 15 17 15 16 20 18 17 16 10 5 4 4 2 5 11 13 13 14 16 17 17 17 15 13 12 12 12 14 10 8 16 19 19 21 22 20 17 16 15 15 12 8 8 9 9 9 11
17 17 18 20 21 22 21 19 18 17 16 16 15 13 15 12 8 8 7 5 7 6 6 8 8 7 8 11 16 20 20 18 19 20 21 22 21 17 14 14 12 12 16 16 16 20 19 17 16 13 8 7 7 5 7 11 12 12 13 14 14 15 16 16 14 13 12 13 14 12 12 19 23 24 24 24 21 17 15 16 14 11 9 8 9 9 9 10
17 17 19 20 22 24 23 20 18 17 17 16 14 15 17 12 8 10 10 7 7 8 7 9 9 7 7 11 15 17 17 18 20 23 24 24 22 18 15 14 12 10 13 15 16 19 21 17 15 15 13 9 8 8 10 10 11 12 12 12 12 11 12 14 14 14 14 14 12 13 15 16 20 24 26 25 22 19 18 18 15 12 10 8 8 9 9 8
17 16 19 20 18 20 22 19 17 19 18 16 16 18 17 11 9 12 11 8 8 9 7 7 8 7 9 13 16 18 19 20 23 25 25 24 22 20 17 15 13 11 10 13 15 17 19 17 15 16 15 12 9 10 11 11 11 12 11 10 11 11 11 13 15 15 16 17 15 16 19 17 17 21 23 23 22 21 19 16 13 12 10 9 8 9 9 9
17 15 21 22 15 15 19 17 16 19 16 16 20 19 13 9 10 12 10 8 9 9 7 6 8 10 11 11 15 20 22 23 25 25 24 23 21 20 19 16 14 13 11 12 14 14 15 15 14 15 16 14 12 12 13 12 12 13 13 11 10 10 10 13 16 16 16 18 17 18 22 22 19 19 22 23 23 20 17 14 13 11 9 8 8 8 9 9
16 15 23 22 13 15 20 18 18 18 15 19 24 18 10 10 12 12 11 9 9 10 9 7 9 11 10 10 13 17 18 19 22 22 21 22 20 19 18 16 15 15 14 14 14 13 13 14 15 16 17 15 13 13 13 11 12 14 15 14 12 10 9 10 12 14 16 15 15 17 23 25 22 20 22 24 23 21 18 15 12 9 8 9 8 8 7 5
16 16 24 20 13 19 22 19 19 18 16 23 25 15 12 13 12 11 12 10 7 9 9 7 8 10 9 10 13 15 15 14 16 18 17 17 17 16 14 14 14 15 15 15 15 14 13 14 19 20 17 17 15 14 13 12 11 14 16 17 16 13 11 10 10 13 16 14 15 20 25 25 24 23 22 22 22 22 20 16 12 10 11 10 8 7 5 3
15 17 22 18 16 21 22 20 20 18 19 23 19 13 13 13 10 11 12 11 8 8 8 7 8 9 9 10 13 15 15 14 13 14 13 13 13 12 11 10 11 12 13 14 14 14 12 13 19 20 16 17 16 14 14 14 10 10 13 16 18 17 15 12 11 13 13 12 12 17 21 23 23 23 22 21 22 23 21 17 13 13 12 10 8 7 6 5
Wind_Direction
261 260 259 258 258 258 258 259 260 260 260 260 259 258 256 255 254 253 252 251 250 251 251 252 252 253 254 254 255 256 256 257 258 257 258 257 241 233 228 228 230 228 224 220 218 223 228 231 230 226 225 224 225 223 221 220 219 220 219 219 216 208 192 175 166 153 141 136 137 145 150 158 191 194 199 211 207 203 203 203 196 185 175 165 151 137 133 123
260 260 258 258 257 257 256 257 257 258 259 260 260 259 259 257 256 255 254 253 251 251 251 252 252 253 253 254 255 256 256 257 257 258 260 249 235 229 228 228 230 230 228 226 223 224 226 231 232 226 224 223 224 222 218 217 219 222 222 223 215 196 175 162 152 146 143 133 133 143 146 152 184 196 209 214 200 197 193 185 194 174 153 162 165 154 150 223
260 259 258 257 256 256 255 255 255 255 256 257 259 259 259 259 258 257 256 255 253 253 252 253 253 253 254 254 255 256 257 257 257 260 253 242 237 228 230 231 230 231 231 230 228 226 223 226 229 225 222 221 222 220 218 215 217 221 224 225 211 186 171 164 155 146 144 135 127 133 141 147 190 203 212 208 186 171 166 155 168 137 123 149 170 164 188 277
259 258 258 257 256 255 254 254 254 254 254 255 256 257 258 259 259 259 257 257 256 255 254 253 253 253 254 254 255 256 257 258 259 258 245 240 238 231 231 234 233 230 231 230 228 226 223 224 226 226 221 220 221 220 219 215 216 221 223 222 210 194 180 168 162 147 146 143 126 123 137 152 196 205 216 214 212 154 150 134 147 129 119 146 172 162 342 326
259 258 257 256 255 254 253 252 252 252 253 253 254 255 257 257 258 259 258 258 257 257 255 254 253 253 253 253 254 255 256 261 264 255 244 241 236 231 230 234 234 228 227 228 226 225 223 223 224 226 223 219 220 221 220 217 219 222 224 222 212 200 183 171 170 148 146 149 130 126 140 209 199 206 221 214 234 311 316 118 155 151 139 169 218 347 344 340
259 258 257 256 255 254 252 252 251 250 250 250 251 252 253 254 256 257 257 257 257 257 255 254 253 252 252 251 251 252 252 254 261 253 244 241 234 228 227 230 232 227 224 224 223 222 221 221 222 225 225 221 221 222 221 220 224 225 226 223 212 205 189 173 172 157 154 154 140 135 150 280 245 245 246 222 245 289 286 255 207 190 182 215 311 347 344 325
259 258 257 256 255 253 252 251 250 249 248 248 248 249 249 251 252 254 255 256 256 255 254 253 253 252 251 250 249 249 248 245 250 253 245 239 232 225 224 226 228 226 223 221 220 219 219 220 221 224 226 225 222 222 221 220 225 227 226 221 215 210 191 173 181 178 170 160 156 164 163 252 283 274 259 245 254 275 280 266 252 219 199 243 310 7 350 307
259 258 257 256 255 253 252 250 249 248 247 246 246 247 247 248 249 251 253 253 254 253 253 252 251 251 250 250 248 247 248 243 236 241 240 236 232 225 222 222 223 223 222 220 218 218 219 219 219 221 225 227 224 221 220 219 226 229 225 220 219 211 193 196 206 186 178 169 169 199 177 171 270 277 267 259 264 278 280 256 232 194 182 222 337 41 8 328
259 258 257 255 254 253 252 250 248 247 246 245 245 245 246 246 247 248 250 251 251 251 251 250 250 250 249 249 249 248 248 235 220 230 235 232 229 225 219 218 218 219 220 217 215 215 215 216 216 218 223 227 225 222 220 219 226 231 227 221 220 213 210 223 213 185 187 186 183 201 175 165 254 270 265 258 265 279 271 220 190 175 169 175 115 61 45 49
259 258 256 255 253 252 251 249 248 246 245 245 244 244 244 245 245 246 247 248 248 248 248 248 248 248 248 247 248 248 244 234 227 227 232 228 224 224 219 215 214 214 217 216 213 213 213 213 213 216 222 226 224 222 220 218 223 229 229 227 224 219 224 229 210 196 207 204 199 205 178 174 238 247 253 259 269 274 251 195 179 174 173 161 118 82 65 50
260 257 256 255 253 252 250 248 247 246 244 244 243 243 243 244 244 244 245 245 246 246 246 246 247 247 247 247 247 247 240 237 232 225 227 223 218 220 216 211 210 210 213 214 211 209 209 209 210 213 219 224 222 219 219 218 220 224 227 230 228 223 225 227 212 209 220 212 200 203 187 192 225 241 255 268 271 261 208 185 180 181 189 160 126 99 71 45
261 258 257 255 253 251 248 247 246 245 244 243 242 242 243 243 243 243 243 243 243 243 244 245 245 246 247 246 245 246 239 235 229 223 221 216 214 215 213 209 207 207 208 208 205 203 204 206 208 210 215 221 217 214 216 216 217 218 222 227 225 225 228 225 215 219 224 210 191 191 201 213 227 240 253 260 263 240 187 185 189 190 191 156 131 105 77 53
263 260 257 255 253 249 247 245 245 244 243 243 242 241 242 243 243 242 242 242 241 241 242 243 245 245 246 246 242 233 234 232 224 220 217 213 212 212 214 212 208 209 207 203 200 198 200 204 206 208 210 213 209 207 209 212 215 216 219 223 222 228 233 224 218 226 222 208 198 198 214 228 234 240 250 256 255 232 191 187 194 192 177 149 138 114 90 66
264 261 257 254 252 250 246 244 243 242 241 242 241 241 242 242 242 242 241 241 240 240 241 242 244 245 246 246 236 228 232 231 224 219 217 213 211 210 213 213 211 211 208 204 201 198 199 202 204 206 208 207 203 204 203 206 212 215 219 225 226 231 233 224 219 220 213 207 199 202 228 246 251 246 252 257 244 227 208 196 198 192 169 152 148 128 107 76
263 260 256 253 251 249 246 244 242 240 240 240 240 240 241 241 241 241 241 240 239 239 240 242 242 245 247 244 234 230 229 230 225 218 219 214 209 209 209 210 211 210 208 205 203 200 199 200 202 205 205 204 204 203 200 199 203 208 213 220 226 230 223 214 214 207 205 209 203 210 235 254 264 251 235 232 212 205 206 203 202 189 173 160 147 136 132 89
260 258 255 252 249 247 245 243 240 240 239 239 239 239 240 240 240 240 240 240 239 239 239 240 240 243 247 242 235 233 228 228 225 218 221 216 209 207 206 208 209 209 207 205 203 202 201 200 199 202 203 205 208 204 202 204 200 202 207 210 220 224 216 203 204 203 206 214 215 220 231 245 268 228 205 214 201 205 207 204 204 189 183 171 144 141 146 112
258 256 253 250 247 245 244 241 239 239 239 238 238 239 240 239 239 240 240 239 238 238 239 239 238 241 243 238 233 230 223 222 220 217 218 214 209 207 206 208 208 208 208 206 206 204 202 199 196 198 203 206 210 207 205 208 205 197 203 208 209 209 213 207 195 198 207 215 220 229 236 243 246 168 159 186 196 223 223 213 212 196 189 171 146 142 144 135
256 254 252 249 247 244 242 240 238 238 238 238 238 239 240 239 239 240 239 238 237 236 237 236 235 237 238 233 228 222 215 216 216 212 209 206 206 206 208 209 208 208 207 207 207 205 200 197 194 196 201 205 208 209 208 207 204 196 199 207 207 204 211 206 193 189 197 206 214 227 234 239 236 203 180 196 314 285 256 227 223 212 201 182 167 161 149 146
255 252 250 249 246 244 242 240 238 238 238 238 238 239 240 239 239 240 239 238 235 234 234 234 232 231 229 227 221 213 210 213 212 206 201 199 201 204 206 207 207 206 206 206 205 204 198 193 193 196 200 204 206 209 210 210 208 205 200 204 209 214 215 209 204 205 214 219 215 216 219 226 228 215 213 237 286 303 273 228 222 221 209 192 188 183 168 164
252 250 250 249 246 244 242 240 239 239 238 238 238 239 240 240 239 240 240 238 236 234 234 233 232 227 222 219 213 209 210 211 207 199 195 195 196 200 202 204 206 205 205 205 204 201 194 192 196 198 199 202 206 208 209 211 211 203 192 190 202 216 220 214 212 220 241 248 232 216 219 223 218 213 217 228 248 282 271 218 210 207 199 193 192 183 181 184
249 248 249 248 247 244 241 240 239 238 237 236 238 238 239 240 240 240 240 239 236 234 233 231 231 225 215 209 201 204 209 206 200 193 192 193 193 198 199 201 204 203 200 200 201 196 191 196 200 199 199 200 206 209 209 213 212 199 187 180 190 215 224 219 213 213 237 254 242 221 216 215 213 213 217 225 248 282 293 202 196 193 191 194 196 188 189 199
246 245 247 248 246 244 241 239 238 237 235 233 235 237 239 240 240 240 241 241 238 235 234 230 230 224 208 202 197 200 207 201 193 190 191 193 195 201 201 199 201 200 194 190 192 189 191 200 202 199 199 201 206 210 213 218 218 212 208 198 197 214 224 218 205 210 246 261 240 216 211 213 220 221 220 230 249 259 135 130 184 201 202 201 199 195 200 212
243 241 245 246 244 241 239 236 234 233 230 227 230 233 238 239 239 241 243 247 243 237 235 229 228 223 204 198 196 200 205 198 191 190 192 194 197 201 202 199 196 192 187 185 187 189 195 202 200 198 201 203 207 212 215 220 221 222 220 213 210 209 213 204 190 201 268 266 216 209 210 213 222 222 221 229 228 194 147 146 167 195 215 221 228 224 221 224
239 238 242 244 240 237 234 232 230 228 222 219 223 228 234 237 240 242 246 253 250 238 234 231 228 221 202 193 197 202 204 197 194 193 193 195 195 197 200 199 192 185 184 186 189 196 202 201 197 199 204 206 210 213 216 219 222 224 223 218 213 206 208 211 200 219 272 272 216 201 189 173 184 201 209 203 191 178 155 152 165 176 194 206 222 230 232 236
236 235 239 241 237 231 228 228 225 221 212 213 220 224 232 236 240 247 252 263 260 243 232 230 227 217 198 192 197 203 205 199 196 195 195 197 197 196 195 195 192 185 184 189 194 200 203 203 202 203 206 208 212 216 217 219 222 225 225 220 212 208 219 236 235 251 262 271 225 194 160 98 146 173 182 173 161 157 157 161 170 179 188 194 210 226 237 243
235 233 235 239 235 228 224 224 219 211 207 212 220 222 229 233 236 248 257 278 275 253 232 226 224 215 200 196 194 198 210 206 195 195 197 196 200 200 194 193 194 190 188 191 199 205 204 205 207 208 209 211 214 218 219 219 222 226 226 218 211 214 228 216 192 245 250 249 212 196 169 115 134 160 163 157 147 139 147 162 169 175 185 194 206 225 237 240
233 230 230 234 233 226 222 221 212 208 208 213 220 219 223 225 226 246 266 299 284 252 231 222 216 210 201 198 194 195 208 203 190 193 197 193 196 200 196 194 195 193 193 193 201 210 209 206 207 207 210 213 215 217 217 217 220 224 225 218 211 217 229 210 170 206 242 211 186 188 169 140 121 148 158 149 148 153 143 145 159 168 178 187 193 209 226 232
229 226 226 230 232 227 221 217 210 208 209 212 216 214 213 213 216 239 259 331 279 234 222 215 207 200 195 195 196 196 195 187 186 190 192 193 193 195 198 200 198 196 197 200 203 211 215 213 210 208 210 214 215 215 215 216 218 221 223 219 213 219 224 208 188 207 225 209 177 169 169 152 118 143 158 148 155 172 176 138 137 158 172 185 193 201 213 221
224 223 224 227 231 229 221 218 211 207 206 206 206 203 201 201 205 211 198 245 248 219 207 201 196 192 189 190 194 197 192 181 187 187 184 191 194 195 199 201 201 201 203 209 212 214 223 222 215 215 217 217 214 212 210 210 213 216 219 214 208 213 210 197 200 200 195 206 203 174 174 166 122 154 162 160 170 179 189 183 153 158 169 181 194 207 218 221
219 219 221 225 229 227 223 221 212 204 201 198 195 188 184 187 191 186 177 219 234 219 208 194 189 189 190 191 193 196 193 183 189 189 184 188 192 195 198 199 202 204 206 213 216 215 218 211 205 211 218 217 211 208 206 206 207 208 208 204 200 201 193 189 201 196 180 217 218 190 185 185 169 174 170 170 179 178 180 193 187 187 198 201 205 222 234 232
215 216 219 224 226 224 223 222 209 200 197 192 186 180 178 182 185 176 191 221 236 243 224 199 188 192 197 196 195 194 190 185 189 190 187 186 188 191 194 197 199 200 205 211 214 212 208 198 188 194 202 199 195 198 198 198 200 201 202 198 189 181 180 182 187 182 169 253 203 195 198 196 192 181 173 171 181 190 204 214 207 197 219 236 233 233 239 239
214 215 218 222 223 221 220 218 205 197 194 189 181 179 182 184 197 208 207 226 238 229 235 209 194 196 200 198 196 194 189 185 184 188 189 185 187 192 194 196 193 188 200 211 210 212 214 212 193 181 190 189 185 189 190 192 195 195 198 193 179 151 163 180 182 174 175 186 182 186 191 191 194 182 175 181 194 201 208 213 216 202 214 248 251 243 242 240
215 215 217 218 218 218 216 214 204 195 192 187 182 184 184 176 219 218 210 62 58 189 204 209 198 197 197 195 195 191 188 186 183 186 191 187 187 193 196 200 196 188 197 206 205 206 212 216 204 190 195 196 192 194 193 194 194 191 191 189 178 144 126 184 263 189 197 171 172 180 176 166 184 189 182 186 194 201 207 216 221 203 195 234 254 257 249 237
217 216 215 212 211 214 213 209 201 195 191 187 186 185 183 191 224 221 219 255 330 207 155 148 193 198 196 194 194 189 185 186 184 184 189 190 190 193 195 200 199 195 198 197 199 200 192 202 204 198 200 199 196 194 189 190 190 190 193 194 192 184 155 175 197 174 161 147 165 179 178 166 177 181 179 181 189 201 209 211 205 190 184 206 231 252 252 235
219 217 211 204 206 212 211 205 199 194 190 189 188 185 191 206 211 226 223 242 337 229 188 151 200 198 194 193 194 189 184 183 183 184 189 193 194 194 196 199 195 197 200 190 191 199 197 194 196 195 195 192 189 183 177 183 189 191 194 200 204 202 183 161 170 178 159 126 141 173 167 170 174 176 176 181 194 202 204 199 187 187 190 194 208 227 241 240
220 217 207 202 209 212 208 202 197 195 192 189 188 194 205 207 199 177 204 215 356 274 207 297 205 190 188 189 190 189 186 181 179 182 190 197 201 199 199 200 196 197 200 190 177 183 194 193 186 189 189 178 180 184 186 193 194 189 192 198 199 197 193 171 148 163 153 125 143 153 138 163 172 179 182 186 195 197 200 201 193 196 199 193 202 215 226 237
218 213 203 204 213 210 203 198 194 195 193 191 194 205 213 209 202 197 187 208 348 300 214 306 215 186 184 184 187 189 187 181 177 181 187 193 203 206 203 202 202 201 199 190 180 173 182 188 182 187 189 181 182 192 198 204 202 192 188 190 186 183 192 185 150 121 114 104 171 161 157 174 177 181 187 191 196 198 201 203 202 212 217 215 223 227 232 240
212 207 200 204 210 203 196 192 192 193 191 194 203 212 219 212 207 209 194 254 342 292 218 283 247 192 188 186 187 189 190 186 180 184 187 186 197 206 204 204 204 204 199 187 181 175 181 190 183 181 188 190 194 200 199 198 205 202 192 189 186 178 179 177 158 143 148 109 166 174 174 190 190 187 191 194 196 199 200 201 207 220 229 235 239 240 243 247
204 200 198 203 205 198 190 185 187 189 190 199 208 214 219 211 203 197 191 314 333 250 202 299 243 201 200 195 189 188 193 195 189 189 191 186 189 199 202 206 207 205 202 194 184 173 179 189 178 177 188 194 199 206 203 191 190 196 196 195 196 194 184 178 169 165 166 143 140 159 186 212 202 197 201 198 195 199 202 204 211 221 228 234 239 244 247 250
197 196 197 200 203 199 187 182 186 188 194 204 210 213 215 209 204 200 197 305 309 211 151 46 41 204 208 202 193 188 192 197 196 195 195 191 191 194 197 203 207 206 203 200 199 192 184 183 164 166 186 193 197 203 204 196 189 185 188 195 196 190 176 173 173 171 164 148 144 144 248 229 204 200 208 204 200 204 205 207 214 222 230 233 236 245 248 250
193 193 193 196 202 200 186 183 188 192 198 206 209 213 216 216 218 214 212 274 283 175 154 1 17 183 206 203 194 188 189 193 196 195 193 192 191 192 194 197 203 206 202 202 205 206 199 195 183 150 164 180 192 198 198 200 201 200 201 202 198 189 174 163 169 182 168 158 161 159 205 219 198 198 207 211 214 214 208 209 215 221 230 235 237 244 246 245
192 188 188 192 196 193 186 187 192 196 203 206 207 214 219 223 227 212 208 259 200 179 233 314 1 157 192 196 190 188 186 186 191 193 189 189 191 191 189 192 196 201 200 201 206 207 204 207 210 179 139 145 178 195 195 196 202 207 211 207 199 196 192 179 175 183 174 156 153 152 138 199 196 196 203 211 217 214 207 209 217 226 232 237 243 247 247 242
191 183 184 191 192 185 183 189 194 197 201 203 208 215 220 226 226 199 205 293 158 193 253 302 219 150 174 186 187 189 185 178 183 191 188 184 188 188 183 187 189 193 197 198 202 203 203 212 215 187 162 148 154 185 193 196 201 203 205 201 196 198 202 201 198 187 178 164 152 138 92 189 191 188 199 216 217 208 206 210 218 228 230 236 248 249 245 239
187 181 183 190 191 185 184 189 193 196 196 198 206 213 220 226 215 187 200 63 149 191 224 163 175 125 160 177 182 184 182 172 170 183 185 176 172 170 169 177 183 188 192 194 198 198 199 207 204 167 132 139 117 144 177 190 199 200 200 199 198 198 199 201 197 181 177 177 175 164 149 181 180 176 195 221 225 213 210 215 218 222 224 233 243 242 238 238
184 183 184 188 191 188 186 189 192 194 193 195 202 211 217 215 190 179 194 140 143 167 134 135 133 97 144 169 173 176 180 178 173 174 175 169 159 152 155 162 171 184 187 185 193 195 195 202 200 177 137 151 156 127 152 170 184 195 200 202 203 203 202 202 193 179 179 187 190 186 162 164 172 179 197 218 227 219 212 215 220 226 234 240 243 245 242 238
184 186 185 184 187 188 189 190 188 187 190 194 199 207 211 201 168 169 177 133 143 159 133 136 132 106 129 158 164 165 170 179 182 177 172 167 157 148 148 150 151 167 176 175 184 191 193 198 198 193 192 189 185 171 154 162 173 180 188 195 199 201 202 204 201 197 194 187 189 193 177 169 174 185 200 215 225 220 207 207 221 235 243 244 247 256 254 241
186 189 189 185 184 185 188 188 184 182 184 190 195 199 203 195 166 168 165 135 149 163 144 146 145 120 131 153 153 150 154 168 174 171 170 169 163 154 148 149 146 147 161 168 174 185 191 193 191 194 200 202 196 179 167 170 174 172 176 186 193 199 205 209 214 218 209 192 184 186 188 192 189 189 201 213 216 213 206 207 220 232 236 244 251 261 269 259
183 188 189 186 185 188 187 184 182 181 181 185 192 194 195 190 165 163 160 147 155 166 163 159 150 129 133 148 148 141 144 154 157 157 161 163 161 155 149 151 157 155 155 164 170 182 193 192 187 190 196 198 196 182 177 180 175 170 173 181 190 200 210 216 220 223 216 212 213 198 190 199 201 195 205 213 212 214 215 216 225 230 235 250 260 266 271 263
182 191 189 184 184 186 183 178 178 181 181 185 186 185 185 178 162 156 160 164 166 174 185 170 148 139 132 140 148 141 139 146 148 149 155 157 155 154 152 151 159 164 165 168 172 180 188 185 181 188 191 190 187 181 182 188 185 177 174 175 183 192 199 208 215 219 216 218 224 211 194 195 202 203 206 207 209 217 224 227 232 236 245 260 268 273 271 260
184 189 182 178 176 175 174 173 177 180 180 180 178 173 163 159 154 152 166 179 177 179 186 170 145 142 134 131 142 141 138 143 145 144 149 152 152 154 155 153 159 167 171 174 177 182 184 171 165 174 172 161 162 169 170 182 194 189 180 178 184 191 191 195 202 209 212 209 210 207 198 195 202 208 207 205 209 217 224 228 232 239 251 259 263 269 273 273
188 178 169 169 168 170 169 169 175 177 174 177 176 160 140 145 147 154 165 172 176 175 177 171 153 144 137 137 140 137 133 139 145 146 148 152 155 154 151 153 162 171 176 180 182 188 190 171 159 166 163 144 142 151 151 158 179 184 179 176 182 192 197 196 191 195 205 204 194 196 199 200 203 207 206 206 208 211 217 225 230 236 243 248 252 253 257 279
183 165 161 165 166 167 168 168 173 172 168 176 174 144 130 139 148 162 157 141 143 154 153 162 171 158 143 146 146 139 136 140 147 151 152 158 164 165 160 158 163 171 177 184 186 189 197 184 168 168 160 144 144 150 150 153 160 173 176 173 176 185 192 192 186 185 196 206 202 202 206 205 205 206 206 204 203 206 215 225 230 233 233 233 235 235 241 254
Height
3070 3070 3070 3071 3071 3072 3073 3073 3074 3074 3075 3075 3076 3077 3077 3077 3078 3079 3080 3081 3081 3082 3083 3085 3086 3086 3087 3087 3088 3089 3090 3090 3091 3091 3095 3099 3099 3098 3100 3101 3101 3103 3105 3107 3108 3109 3110 3110 3111 3112 3113 3115 3116 3117 3118 3119 3120 3120 3120 3121 3123 3124 3125 3127 3128 3129 3129 3129 3130 3131 3131 3132 3134 3135 3135 3136 3137 3138 3138 3139 3140 3140 3141 3142 3143 3143 3144 3144
3067 3067 3067 3068 3068 3069 3070 3070 3071 3071 3072 3073 3073 3074 3074 3075 3075 3076 3077 3078 3078 3079 3081 3082 3083 3083 3084 3084 3085 3086 3086 3087 3087 3089 3095 3097 3095 3096 3097 3098 3099 3101 3104 3105 3107 3108 3109 3109 3109 3111 3112 3113 3114 3116 3117 3118 3119 3119 3119 3120 3122 3124 3126 3127 3128 3129 3129 3129 3130 3131 3132 3132 3134 3135 3135 3136 3136 3137 3138 3139 3139 3140 3141 3142 3142 3143 3143 3144
3064 3064 3065 3065 3065 3066 3066 3067 3068 3068 3069 3070 3070 3071 3071 3072 3072 3073 3074 3075 3076 3077 3078 3079 3080 3080 3081 3082 3083 3083 3084 3084 3084 3089 3094 3092 3092 3094 3095 3096 3098 3100 3102 3103 3104 3105 3106 3107 3108 3109 3111 3112 3113 3114 3116 3117 3118 3118 3118 3120 3122 3124 3126 3127 3128 3129 3129 3129 3130 3131 3132 3132 3134 3134 3135 3135 3136 3137 3138 3139 3139 3140 3141 3142 3142 3142 3143 3143
3061 3061 3062 3062 3063 3063 3064 3064 3065 3065 3066 3067 3068 3068 3069 3069 3070 3070 3071 3072 3073 3074 3076 3077 3077 3077 3078 3079 3080 3080 3081 3081 3083 3088 3090 3089 3090 3092 3093 3094 3095 3098 3099 3100 3102 3103 3105 3106 3107 3108 3109 3110 3111 3112 3114 3116 3117 3117 3117 3119 3122 3124 3125 3126 3128 3128 3128 3129 3130 3131 3132 3133 3134 3134 3135 3135 3136 3137 3138 3139 3139 3140 3141 3142 3142 3142 3142 3142
3058 3058 3059 3059 3060 3060 3061 3061 3062 3063 3063 3064 3065 3065 3066 3066 3067 3067 3068 3069 3070 3072 3073 3074 3074 3075 3075 3076 3077 3078 3079 3079 3082 3086 3086 3086 3088 3089 3091 3092 3093 3096 3097 3098 3100 3101 3103 3104 3106 3107 3108 3109 3110 3111 3113 3115 3116 3116 3117 3119 3121 3123 3124 3126 3127 3127 3128 3128 3129 3130 3132 3133 3133 3134 3134 3135 3136 3137 3138 3139 3139 3140 3141 3141 3141 3142 3142 3142
3055 3055 3056 3056 3057 3057 3057 3058 3059 3059 3060 3061 3062 3062 3063 3064 3064 3065 3065 3067 3068 3069 3070 3071 3071 3072 3073 3074 3074 3075 3076 3078 3080 3082 3083 3083 3085 3087 3088 3089 3091 3093 3094 3096 3097 3099 3101 3103 3104 3106 3107 3108 3109 3110 3113 3115 3115 3115 3116 3118 3120 3122 3123 3125 3126 3127 3127 3127 3127 3128 3130 3131 3133 3133 3133 3134 3135 3136 3137 3138 3139 3140 3140 3141 3141 3141 3141 3141
3052 3052 3053 3053 3054 3054 3054 3055 3056 3056 3057 3058 3059 3060 3060 3061 3061 3062 3063 3064 3065 3067 3067 3068 3069 3069 3070 3071 3072 3072 3073 3077 3080 3080 3080 3081 3082 3084 3085 3087 3089 3091 3092 3094 3096 3098 3099 3101 3103 3105 3107 3107 3108 3110 3112 3114 3114 3114 3116 3118 3120 3121 3122 3124 3125 3126 3126 3127 3127 3127 3128 3130 3131 3132 3133 3134 3134 3135 3136 3137 3139 3139 3140 3140 3141 3141 3141 3140
3049 3049 3050 3050 3050 3051 3051 3052 3053 3053 3054 3055 3056 3057 3057 3058 3058 3059 3060 3061 3063 3064 3065 3066 3066 3067 3068 3068 3069 3069 3070 3077 3079 3076 3077 3079 3081 3082 3083 3085 3087 3089 3091 3093 3095 3096 3098 3100 3102 3104 3105 3107 3108 3110 3111 3112 3113 3113 3115 3118 3119 3120 3122 3123 3123 3124 3125 3126 3126 3126 3127 3128 3130 3131 3132 3132 3133 3134 3135 3137 3138 3139 3139 3140 3141 3140 3140 3139
3046 3046 3047 3047 3047 3048 3048 3049 3050 3050 3051 3052 3053 3054 3055 3055 3056 3057 3058 3059 3060 3061 3063 3063 3063 3065 3065 3066 3066 3066 3070 3075 3075 3073 3075 3078 3079 3080 3081 3083 3085 3087 3089 3091 3093 3094 3096 3099 3102 3103 3105 3106 3107 3109 3110 3111 3112 3112 3115 3117 3118 3120 3121 3121 3122 3123 3123 3124 3125 3126 3126 3127 3129 3130 3130 3131 3132 3133 3134 3136 3137 3138 3139 3140 3140 3140 3140 3139
3043 3043 3043 3044 3044 3045 3046 3046 3047 3048 3048 3049 3051 3051 3052 3052 3053 3054 3055 3057 3058 3059 3060 3060 3061 3062 3063 3064 3063 3065 3070 3072 3071 3072 3074 3075 3077 3078 3080 3082 3083 3086 3087 3089 3091 3093 3096 3099 3101 3102 3104 3105 3106 3107 3109 3110 3111 3112 3114 3116 3117 3118 3119 3120 3121 3122 3123 3123 3124 3125 3126 3127 3128 3129 3130 3131 3132 3133 3134 3135 3137 3138 3139 3139 3140 3140 3140 3139
3040 3040 3040 3041 3041 3042 3043 3043 3044 3045 3046 3047 3048 3048 3049 3050 3051 3052 3053 3054 3055 3057 3057 3058 3059 3059 3060 3061 3061 3065 3069 3069 3069 3071 3072 3074 3076 3077 3078 3080 3082 3084 3085 3088 3090 3093 3096 3098 3099 3100 3102 3103 3104 3106 3108 3109 3111 3112 3113 3114 3116 3117 3118 3120 3121 3121 3123 3124 3124 3125 3126 3126 3127 3128 3129 3130 3131 3132 3133 3135 3136 3137 3138 3139 3140 3140 3140 3140
3037 3037 3037 3038 3038 3039 3040 3040 3041 3042 3043 3044 3045 3046 3046 3047 3048 3049 3050 3051 3053 3054 3055 3056 3056 3057 3058 3057 3060 3065 3066 3065 3067 3068 3070 3073 3074 3075 3077 3078 3080 3081 3083 3086 3089 3091 3094 3095 3097 3099 3101 3101 3103 3106 3107 3108 3110 3111 3112 3114 3115 3117 3117 3119 3120 3121 3122 3123 3124 3125 3125 3125 3126 3127 3128 3129 3130 3131 3133 3134 3136 3137 3138 3138 3139 3140 3140 3140
3033 3034 3034 3035 3035 3036 3036 3037 3039 3040 3041 3042 3042 3043 3044 3045 3045 3046 3048 3049 3050 3051 3052 3053 3053 3054 3054 3055 3060 3063 3062 3062 3065 3067 3069 3071 3072 3073 3075 3077 3078 3080 3082 3085 3086 3088 3090 3092 3094 3097 3098 3100 3102 3104 3105 3107 3108 3110 3112 3113 3115 3116 3117 3118 3119 3120 3121 3122 3123 3124 3124 3124 3125 3126 3127 3128 3129 3130 3132 3133 3135 3136 3137 3138 3139 3139 3140 3140
3030 3031 3031 3032 3032 3033 3034 3035 3036 3037 3038 3039 3040 3041 3042 3042 3043 3044 3045 3046 3048 3049 3050 3050 3051 3052 3051 3054 3059 3060 3059 3061 3063 3066 3068 3068 3070 3072 3074 3076 3078 3079 3082 3084 3085 3086 3088 3090 3092 3094 3096 3099 3101 3102 3104 3106 3107 3110 3111 3113 3114 3115 3116 3117 3118 3119 3120 3121 3122 3123 3123 3123 3124 3126 3126 3127 3128 3129 3131 3132 3133 3135 3136 3137 3138 3139 3139 3140
3027 3028 3028 3029 3029 3030 3031 3032 3033 3034 3035 3036 3037 3038 3039 3040 3040 3041 3043 3044 3045 3046 3047 3048 3049 3049 3050 3053 3057 3056 3057 3059 3062 3065 3065 3066 3068 3071 3073 3075 3077 3078 3080 3082 3083 3084 3086 3087 3090 3092 3095 3098 3099 3101 3103 3105 3106 3108 3110 3111 3112 3114 3115 3116 3117 3118 3119 3120 3121 3122 3122 3122 3123 3124 3125 3126 3127 3128 3129 3130 3132 3133 3135 3136 3137 3138 3139 3140
3025 3025 3025 3026 3027 3027 3028 3030 3031 3032 3033 3034 3035 3036 3036 3037 3038 3039 3040 3041 3042 3043 3044 3045 3047 3048 3048 3051 3053 3054 3056 3058 3061 3062 3062 3065 3068 3069 3072 3074 3075 3076 3078 3080 3081 3082 3084 3085 3088 3091 3094 3096 3097 3100 3102 3104 3105 3107 3108 3110 3111 3113 3114 3115 3116 3117 3118 3119 3119 3120 3121 3122 3123 3123 3124 3125 3125 3126 3127 3129 3131 3132 3134 3135 3136 3137 3138 3139
3022 3022 3023 3023 3024 3025 3026 3027 3028 3029 3031 3032 3033 3033 3034 3035 3036 3036 3037 3039 3040 3041 3042 3043 3045 3046 3047 3049 3051 3052 3055 3056 3058 3059 3061 3064 3066 3067 3069 3071 3073 3075 3076 3078 3079 3080 3082 3084 3086 3089 3091 3093 3096 3099 3100 3101 3103 3105 3107 3109 3111 3112 3113 3114 3115 3116 3116 3117 3118 3119 3120 3121 3122 3123 3124 3124 3125 3125 3126 3128 3129 3131 3133 3134 3135 3136 3138 3139
3019 3020 3020 3021 3021 3022 3023 3025 3026 3027 3028 3029 3030 3031 3031 3033 3033 3034 3035 3036 3037 3038 3040 3041 3043 3044 3045 3047 3049 3050 3052 3053 3054 3057 3059 3061 3063 3065 3067 3070 3072 3073 3074 3075 3077 3079 3081 3083 3085 3087 3089 3091 3094 3096 3097 3099 3102 3104 3106 3108 3109 3110 3111 3112 3113 3114 3115 3115 3117 3117 3118 3120 3121 3122 3123 3123 3124 3124 3125 3126 3128 3130 3131 3133 3134 3135 3137 3138
3017 3017 3018 3018 3019 3020 3021 3022 3024 3025 3026 3027 3028 3029 3030 3030 3031 3031 3032 3033 3034 3036 3038 3039 3040 3042 3044 3045 3046 3047 3049 3050 3052 3055 3057 3059 3061 3063 3065 3067 3069 3070 3071 3072 3075 3077 3079 3081 3083 3083 3085 3088 3091 3094 3097 3100 3103 3104 3105 3107 3108 3109 3110 3111 3112 3113 3113 3114 3115 3116 3117 3118 3119 3121 3122 3123 3123 3123 3123 3124 3126 3128 3130 3132 3133 3134 3137 3138
3015 3015 3016 3016 3017 3018 3019 3020 3021 3023 3024 3025 3026 3027 3027 3027 3028 3029 3029 3030 3032 3035 3036 3037 3038 3040 3042 3043 3044 3046 3047 3048 3050 3053 3055 3057 3059 3061 3063 3064 3066 3068 3069 3071 3073 3076 3078 3079 3079 3080 3083 3087 3091 3095 3098 3101 3102 3103 3104 3106 3107 3108 3109 3110 3112 3112 3112 3113 3114 3115 3115 3117 3118 3120 3121 3122 3122 3122 3123 3123 3124 3126 3128 3130 3132 3134 3136 3137
3013 3013 3013 3014 3015 3016 3017 3018 3020 3021 3023 3024 3024 3025 3025 3025 3026 3027 3028 3029 3031 3033 3033 3035 3036 3037 3039 3041 3043 3044 3044 3046 3048 3051 3053 3055 3058 3059 3060 3062 3063 3065 3067 3070 3072 3075 3077 3077 3078 3081 3085 3088 3091 3095 3097 3098 3100 3102 3103 3105 3106 3107 3108 3109 3111 3111 3111 3112 3112 3113 3114 3115 3117 3119 3120 3120 3121 3122 3123 3123 3124 3125 3127 3129 3131 3133 3135 3137
3011 3011 3012 3013 3013 3014 3016 3017 3018 3020 3021 3022 3023 3023 3023 3024 3025 3026 3027 3027 3029 3030 3031 3033 3033 3034 3037 3039 3041 3041 3042 3044 3046 3048 3050 3053 3055 3057 3058 3060 3061 3063 3066 3068 3070 3073 3074 3075 3078 3083 3085 3088 3090 3093 3095 3096 3099 3100 3102 3104 3105 3106 3107 3108 3109 3109 3109 3110 3110 3112 3113 3114 3116 3117 3118 3119 3120 3121 3122 3123 3124 3125 3127 3129 3131 3133 3134 3136
3009 3009 3010 3011 3012 3013 3014 3015 3017 3018 3020 3021 3021 3021 3022 3023 3024 3025 3026 3026 3027 3028 3028 3030 3031 3032 3035 3037 3039 3039 3040 3042 3044 3046 3048 3050 3053 3055 3056 3058 3060 3062 3064 3066 3068 3071 3072 3075 3079 3083 3085 3086 3088 3090 3092 3095 3097 3099 3101 3102 3104 3105 3106 3107 3107 3107 3108 3108 3108 3110 3111 3113 3114 3115 3116 3118 3120 3121 3121 3122 3123 3125 3126 3128 3130 3131 3133 3134
3007 3008 3009 3009 3010 3012 3013 3014 3015 3017 3018 3019 3020 3021 3021 3022 3023 3025 3025 3025 3025 3025 3026 3028 3028 3029 3033 3036 3037 3037 3038 3041 3042 3044 3046 3049 3051 3053 3055 3057 3059 3061 3063 3066 3069 3071 3073 3076 3080 3082 3084 3085 3086 3088 3090 3093 3095 3097 3099 3101 3102 3104 3105 3105 3105 3106 3106 3106 3106 3107 3109 3111 3112 3113 3115 3117 3119 3120 3120 3121 3122 3123 3125 3126 3128 3129 3130 3132
3006 3006 3007 3008 3009 3010 3011 3012 3014 3016 3017 3018 3019 3020 3020 3021 3023 3024 3025 3025 3023 3022 3024 3025 3026 3027 3031 3033 3034 3035 3037 3038 3040 3043 3045 3047 3049 3051 3054 3057 3059 3060 3062 3066 3069 3071 3074 3076 3079 3081 3082 3083 3085 3086 3089 3092 3094 3096 3098 3099 3102 3103 3104 3104 3104 3105 3105 3105 3105 3106 3108 3111 3112 3113 3115 3117 3118 3119 3119 3120 3122 3122 3123 3124 3126 3128 3129 3131
3004 3005 3006 3007 3008 3009 3010 3011 3013 3015 3016 3017 3018 3019 3020 3021 3023 3024 3025 3025 3021 3019 3021 3022 3024 3026 3028 3030 3031 3035 3036 3036 3039 3042 3044 3046 3049 3051 3052 3055 3057 3059 3062 3066 3069 3071 3073 3075 3077 3079 3080 3082 3083 3085 3087 3090 3093 3095 3096 3098 3101 3103 3103 3104 3104 3104 3104 3104 3104 3104 3106 3110 3112 3113 3115 3116 3116 3118 3119 3120 3121 3121 3122 3124 3125 3127 3128 3129
3002 3004 3005 3006 3007 3008 3009 3011 3013 3014 3015 3016 3017 3019 3020 3022 3024 3024 3025 3026 3020 3016 3018 3020 3022 3024 3026 3029 3031 3033 3034 3035 3038 3040 3042 3045 3048 3050 3052 3053 3055 3058 3061 3065 3068 3069 3071 3073 3075 3076 3078 3080 3080 3082 3086 3089 3091 3093 3095 3098 3100 3102 3102 3103 3103 3103 3103 3103 3103 3104 3105 3108 3112 3113 3114 3115 3116 3117 3118 3119 3120 3121 3122 3123 3124 3125 3126 3127
3001 3002 3004 3005 3006 3007 3009 3010 3012 3013 3015 3016 3017 3019 3020 3022 3024 3025 3026 3026 3018 3014 3016 3017 3020 3022 3024 3028 3030 3031 3033 3035 3037 3039 3042 3045 3046 3049 3051 3052 3054 3057 3060 3063 3065 3067 3069 3071 3073 3075 3076 3077 3078 3081 3085 3088 3090 3092 3094 3097 3099 3101 3101 3102 3103 3103 3103 3103 3103 3103 3104 3107 3111 3113 3113 3114 3115 3116 3117 3118 3119 3120 3121 3122 3123 3124 3125 3126
2999 3001 3003 3004 3005 3006 3008 3010 3011 3013 3014 3015 3017 3019 3020 3022 3024 3025 3027 3025 3016 3013 3015 3016 3018 3021 3022 3025 3028 3030 3033 3035 3036 3038 3041 3044 3045 3047 3050 3052 3055 3058 3060 3062 3065 3067 3068 3070 3072 3074 3075 3075 3078 3081 3084 3086 3088 3091 3094 3096 3098 3099 3100 3101 3102 3102 3102 3102 3102 3103 3104 3106 3110 3112 3112 3113 3113 3115 3116 3117 3118 3119 3120 3121 3122 3122 3123 3124
2998 3000 3001 3003 3004 3006 3007 3009 3010 3012 3013 3015 3017 3018 3020 3022 3023 3025 3027 3022 3013 3013 3015 3014 3017 3019 3020 3023 3025 3029 3032 3034 3036 3038 3039 3042 3044 3047 3050 3053 3055 3058 3060 3062 3064 3066 3068 3069 3070 3072 3073 3075 3078 3080 3083 3085 3088 3091 3093 3095 3096 3098 3099 3100 3101 3101 3102 3103 3102 3103 3104 3105 3108 3111 3111 3111 3112 3113 3115 3116 3118 3119 3119 3120 3121 3121 3121 3122
2997 2998 3000 3001 3003 3005 3006 3008 3010 3011 3013 3014 3016 3018 3020 3021 3023 3024 3023 3016 3012 3014 3014 3014 3015 3016 3018 3020 3022 3026 3030 3033 3034 3036 3038 3040 3043 3045 3048 3050 3053 3057 3059 3060 3061 3064 3066 3066 3067 3070 3072 3075 3077 3079 3081 3084 3087 3089 3091 3093 3095 3097 3098 3100 3100 3100 3102 3103 3102 3102 3104 3105 3107 3109 3109 3110 3111 3113 3114 3115 3116 3118 3119 3119 3119 3120 3120 3120
2995 2997 2999 3000 3002 3004 3005 3007 3009 3010 3012 3014 3016 3017 3018 3020 3021 3020 3016 3014 3013 3013 3013 3014 3014 3015 3017 3019 3021 3025 3028 3031 3032 3034 3036 3038 3041 3043 3044 3047 3049 3053 3056 3057 3059 3062 3063 3065 3066 3069 3071 3072 3074 3076 3079 3081 3083 3086 3088 3090 3093 3096 3098 3099 3100 3101 3101 3102 3101 3102 3103 3105 3107 3108 3108 3109 3111 3112 3113 3114 3115 3116 3117 3118 3118 3118 3119 3119
2994 2996 2998 2999 3001 3003 3004 3006 3008 3009 3011 3013 3015 3015 3017 3019 3018 3015 3013 3013 3013 3013 3012 3013 3014 3015 3017 3018 3021 3024 3027 3030 3031 3034 3036 3038 3040 3042 3044 3046 3048 3051 3053 3055 3058 3060 3062 3064 3065 3066 3068 3069 3071 3072 3074 3077 3080 3083 3085 3088 3090 3093 3096 3099 3101 3102 3101 3100 3101 3102 3103 3105 3107 3108 3108 3109 3110 3111 3113 3114 3115 3116 3116 3117 3117 3117 3118 3118
2993 2995 2996 2998 3000 3001 3003 3004 3006 3008 3010 3012 3013 3014 3016 3017 3014 3013 3013 3013 3013 3013 3012 3012 3014 3015 3016 3017 3020 3022 3026 3029 3031 3032 3035 3037 3039 3040 3042 3045 3048 3050 3052 3054 3056 3058 3060 3062 3062 3063 3065 3067 3068 3070 3073 3075 3078 3081 3084 3086 3088 3090 3092 3096 3098 3098 3098 3099 3101 3102 3103 3105 3106 3107 3108 3109 3110 3111 3112 3113 3114 3115 3116 3116 3116 3117 3117 3117
2991 2993 2995 2998 2999 3000 3001 3003 3005 3007 3009 3010 3012 3013 3013 3013 3012 3013 3014 3014 3014 3013 3011 3011 3012 3013 3015 3017 3019 3022 3025 3027 3029 3032 3034 3035 3037 3039 3041 3044 3046 3049 3051 3052 3055 3057 3058 3059 3060 3062 3064 3066 3068 3070 3072 3074 3077 3080 3083 3084 3086 3088 3090 3093 3095 3095 3096 3099 3101 3102 3103 3105 3106 3106 3108 3109 3110 3110 3111 3112 3113 3115 3115 3116 3116 3116 3116 3117
2990 2992 2994 2996 2998 2999 3000 3002 3004 3006 3007 3009 3011 3011 3010 3010 3012 3013 3013 3014 3014 3012 3011 3011 3011 3011 3014 3016 3018 3022 3024 3026 3028 3031 3033 3035 3037 3039 3041 3043 3045 3047 3049 3051 3053 3055 3057 3058 3059 3061 3063 3065 3067 3069 3071 3073 3074 3077 3079 3082 3085 3088 3090 3091 3093 3095 3096 3098 3102 3103 3104 3105 3106 3106 3107 3108 3109 3109 3110 3111 3112 3114 3114 3115 3115 3115 3116 3117
2989 2991 2993 2995 2996 2998 2999 3001 3003 3005 3006 3008 3009 3009 3008 3010 3012 3012 3012 3013 3013 3012 3011 3010 3010 3011 3013 3014 3017 3020 3023 3025 3027 3029 3031 3034 3036 3038 3040 3042 3044 3046 3048 3051 3053 3054 3056 3057 3059 3061 3062 3064 3066 3068 3070 3072 3073 3075 3077 3080 3084 3087 3089 3089 3092 3096 3097 3099 3103 3104 3104 3104 3105 3105 3106 3107 3108 3108 3110 3111 3111 3112 3113 3113 3114 3115 3115 3116
2987 2989 2992 2994 2996 2997 2998 3000 3002 3004 3006 3007 3007 3007 3008 3010 3011 3011 3012 3013 3013 3012 3011 3010 3010 3011 3011 3013 3015 3018 3021 3023 3025 3027 3029 3032 3034 3036 3039 3041 3043 3046 3048 3051 3053 3054 3055 3056 3058 3060 3061 3063 3064 3066 3068 3070 3072 3075 3077 3080 3082 3084 3086 3087 3090 3093 3095 3100 3104 3104 3104 3104 3103 3103 3104 3105 3106 3107 3108 3110 3110 3111 3111 3112 3113 3114 3114 3115
2986 2989 2991 2993 2994 2996 2997 2999 3001 3003 3004 3005 3005 3006 3008 3009 3010 3011 3011 3011 3012 3013 3011 3009 3010 3011 3011 3012 3014 3017 3020 3022 3024 3026 3028 3031 3033 3034 3037 3040 3042 3045 3047 3050 3052 3053 3054 3055 3057 3058 3060 3061 3063 3065 3066 3068 3071 3074 3077 3078 3080 3082 3084 3085 3087 3089 3091 3099 3104 3105 3105 3103 3101 3102 3102 3103 3105 3106 3107 3108 3109 3110 3110 3111 3112 3113 3113 3113
2986 2988 2990 2992 2993 2994 2996 2998 2999 3000 3001 3002 3003 3006 3008 3009 3010 3010 3010 3011 3012 3012 3010 3008 3010 3011 3011 3012 3013 3016 3019 3022 3024 3026 3028 3030 3032 3033 3035 3038 3040 3043 3046 3049 3051 3052 3054 3055 3056 3057 3058 3060 3061 3063 3065 3067 3069 3072 3074 3076 3078 3080 3082 3084 3086 3087 3088 3094 3100 3104 3105 3101 3099 3101 3101 3102 3103 3104 3106 3107 3108 3109 3109 3110 3111 3111 3111 3112
2985 2987 2989 2990 2992 2993 2995 2996 2997 2998 2999 3001 3004 3006 3007 3008 3009 3010 3010 3011 3012 3012 3009 3008 3009 3010 3010 3011 3013 3015 3018 3021 3024 3026 3028 3030 3031 3033 3034 3036 3038 3041 3044 3047 3049 3051 3053 3054 3055 3057 3058 3059 3061 3062 3065 3067 3069 3071 3073 3074 3076 3078 3080 3082 3085 3087 3087 3089 3093 3097 3098 3096 3097 3099 3100 3101 3102 3103 3105 3106 3107 3108 3108 3109 3110 3110 3110 3110
2984 2986 2987 2989 2990 2992 2994 2995 2996 2997 2999 3001 3003 3005 3006 3007 3009 3010 3010 3010 3011 3010 3009 3008 3009 3009 3009 3010 3012 3014 3017 3020 3023 3025 3027 3029 3031 3032 3033 3035 3037 3040 3043 3045 3047 3050 3053 3054 3055 3057 3058 3059 3060 3062 3064 3066 3068 3070 3072 3073 3075 3077 3079 3080 3083 3085 3086 3088 3089 3091 3093 3094 3095 3097 3099 3100 3101 3102 3103 3105 3106 3107 3107 3108 3108 3108 3109 3109
2983 2985 2986 2988 2989 2990 2992 2993 2995 2996 2999 3001 3003 3004 3006 3007 3008 3009 3009 3009 3010 3009 3008 3009 3009 3009 3009 3009 3011 3013 3016 3019 3023 3025 3026 3028 3031 3032 3033 3035 3037 3039 3042 3044 3046 3049 3052 3053 3054 3056 3058 3059 3060 3061 3063 3065 3067 3069 3071 3072 3074 3076 3077 3079 3081 3082 3084 3086 3088 3089 3092 3094 3095 3096 3098 3099 3099 3100 3102 3103 3104 3105 3106 3107 3107 3107 3108 3108
2982 2984 2985 2987 2988 2989 2990 2991 2994 2996 2998 3001 3002 3003 3005 3006 3008 3009 3008 3008 3009 3009 3009 3008 3009 3008 3008 3008 3010 3012 3015 3018 3021 3024 3026 3028 3030 3032 3033 3034 3036 3038 3041 3043 3045 3047 3050 3051 3053 3055 3058 3059 3060 3061 3062 3063 3065 3067 3069 3071 3073 3075 3076 3078 3080 3081 3083 3085 3086 3088 3091 3093 3094 3096 3097 3097 3097 3099 3101 3102 3103 3104 3105 3105 3105 3106 3106 3106
2981 2982 2984 2986 2988 2989 2990 2991 2993 2996 2998 3000 3002 3003 3005 3006 3007 3008 3008 3008 3008 3009 3008 3008 3008 3008 3008 3009 3010 3012 3014 3017 3020 3023 3025 3027 3030 3032 3033 3035 3036 3038 3040 3042 3044 3046 3048 3050 3052 3054 3056 3059 3061 3061 3061 3062 3064 3066 3068 3070 3072 3074 3075 3077 3079 3080 3081 3083 3085 3086 3088 3091 3093 3095 3096 3096 3096 3097 3099 3100 3101 3102 3103 3104 3104 3104 3105 3105
2979 2981 2982 2984 2986 2988 2989 2991 2993 2995 2998 3000 3001 3003 3004 3005 3006 3008 3007 3007 3008 3009 3008 3009 3009 3009 3009 3010 3011 3012 3014 3016 3019 3022 3025 3027 3030 3032 3034 3035 3037 3038 3040 3041 3043 3045 3048 3049 3051 3053 3055 3057 3059 3059 3060 3061 3063 3065 3067 3069 3070 3072 3074 3076 3077 3078 3080 3082 3083 3084 3086 3088 3091 3093 3094 3094 3095 3096 3098 3099 3099 3101 3102 3102 3103 3103 3103 3104
2979 2980 2982 2984 2986 2987 2988 2990 2993 2995 2997 2999 3000 3002 3003 3004 3006 3007 3007 3007 3008 3009 3009 3009 3010 3010 3010 3011 3011 3013 3015 3017 3018 3021 3024 3027 3029 3031 3034 3035 3037 3038 3040 3041 3043 3045 3047 3049 3051 3053 3055 3056 3057 3059 3060 3061 3063 3064 3066 3067 3069 3071 3072 3074 3076 3077 3079 3080 3082 3083 3084 3086 3088 3090 3091 3092 3093 3094 3096 3098 3099 3100 3100 3101 3101 3102 3102 3102
2979 2981 2983 2984 2986 2987 2988 2991 2993 2995 2997 2998 3000 3001 3003 3004 3006 3007 3007 3007 3008 3009 3009 3010 3011 3011 3012 3012 3012 3013 3015 3017 3019 3021 3024 3026 3029 3031 3033 3035 3037 3038 3040 3041 3042 3044 3046 3048 3050 3052 3054 3056 3057 3059 3060 3061 3062 3064 3065 3067 3068 3069 3071 3073 3074 3076 3077 3078 3080 3082 3083 3084 3086 3088 3089 3090 3092 3094 3095 3097 3098 3099 3099 3100 3100 3101 3101 3101
2979 2980 2982 2984 2986 2987 2990 2992 2994 2995 2997 2998 3000 3002 3003 3004 3005 3006 3007 3008 3009 3010 3010 3011 3011 3012 3013 3014 3014 3015 3016 3018 3020 3022 3024 3027 3029 3031 3033 3035 3037 3038 3040 3041 3042 3044 3045 3047 3049 3051 3053 3055 3057 3058 3060 3061 3062 3063 3065 3066 3067 3069 3070 3072 3073 3075 3076 3077 3078 3080 3081 3083 3085 3087 3088 3090 3092 3093 3095 3096 3097 3098 3098 3099 3099 3100 3100 3100
2978 2979 2981 2984 2986 2987 2989 2991 2993 2995 2997 2997 2999 3002 3003 3004 3005 3006 3008 3009 3010 3011 3011 3012 3012 3013 3014 3016 3016 3017 3018 3019 3021 3023 3025 3027 3029 3031 3033 3035 3037 3038 3040 3041 3042 3043 3044 3046 3049 3050 3052 3055 3056 3057 3059 3060 3062 3063 3064 3065 3067 3069 3070 3071 3073 3074 3075 3076 3078 3079 3080 3082 3083 3085 3087 3089 3091 3092 3093 3095 3096 3097 3097 3098 3099 3099 3100 3100
2978 2979 2981 2984 2985 2987 2989 2991 2993 2995 2996 2997 2999 3001 3003 3004 3005 3006 3008 3009 3011 3012 3012 3013 3013 3014 3015 3017 3018 3019 3020 3022 3023 3025 3026 3028 3029 3031 3033 3034 3037 3038 3039 3041 3042 3043 3044 3046 3048 3050 3052 3054 3056 3057 3058 3060 3062 3063 3064 3065 3066 3068 3070 3072 3072 3073 3074 3075 3077 3078 3079 3080 3082 3083 3085 3087 3089 3091 3092 3093 3095 3096 3096 3097 3098 3099 3099 3100
2978 2979 2981 2983 2985 2987 2989 2991 2993 2995 2997 2999 3000 3001 3002 3004 3006 3007 3008 3009 3011 3012 3013 3014 3014 3015 3016 3017 3018 3020 3021 3023 3024 3025 3027 3028 3030 3031 3033 3035 3037 3038 3040 3041 3042 3043 3044 3046 3048 3049 3052 3055 3056 3057 3058 3060 3062 3063 3064 3065 3066 3067 3069 3071 3072 3073 3074 3075 3076 3077 3078 3079 3080 3082 3084 3085 3088 3090 3091 3093 3094 3094 3095 3096 3097 3097 3098 3099